Regional Weather Roundup
Issued by NWS Glasgow, MT

Home | Current Version | Previous Version | Text Only | Print | Product List | Glossary On
Versions: 1 2 3 4 5 6 7 8 9 10 11 12 13 14 15 16 17 18 19 20 21 22 23 24 25 26 27 28 29 30 31 32 33 34 35 36 37 38 39 40 41 42 43 44 45 46 47 48 49 50
000
ASUS45 KGGW 182015
RWRGGW
HOURLY WEATHER ROUNDUP FOR NORTHEAST MONTANA
NATIONAL WEATHER SERVICE GLASGOW MONTANA
200 PM MDT SAT APR 18 2015

NOTE: "FAIR" INDICATES FEW OR NO CLOUDS BELOW 12,000 FEET WITH NO
SIGNIFICANT WEATHER AND/OR OBSTRUCTIONS TO VISISBILITY.

NORTHEAST MONTANA


CITY           SKY/WX    TMP DP  RH WIND       PRES   REMARKS
GLASGOW        MOSUNNY   59  26  28 N30G37    30.06R
PLENTYWOOD       N/A     54  37  52 N18G32      N/A
WOLF POINT     PTSUNNY   63  35  35 N20G28    30.00R
JORDAN           N/A     58  32  37 N29G39    30.06R
WINNETT          N/A     50  30  46 N20G30      N/A
SIDNEY         PTSUNNY   66  36  32 NW15      29.89S
GLENDIVE       MOSUNNY   66  36  32 NW21G30   29.92R
MALTA            N/A     54  33  45 NW16G24     N/A
SCOBEY           N/A     57  26  30 NW28G35   29.97R
OPHEIM           N/A     48  27  43 N25       29.94R

FORT PECK REPORTS


CITY           SKY/WX    TMP DP  RH WIND       PRES   REMARKS
FORT PECK        N/A     57  30  35 NW26G40     N/A
THE PINES        N/A     58  30  34 N14G26      N/A

SOUTHEAST MONTANA


CITY           SKY/WX    TMP DP  RH WIND       PRES   REMARKS
BILLINGS       PTSUNNY   60  36  40 NE30G38   30.05R
MILES CITY     MOSUNNY   66  36  32 NW30G40   29.96R
BAKER          PTSUNNY   65  41  41 W8        29.92F
LIVINGSTON     CLOUDY    57  33  40 NW30G36   30.11R

CENTRAL MONTANA


CITY           SKY/WX    TMP DP  RH WIND       PRES   REMARKS
HAVRE          CLOUDY    52  24  33 NW21G29   30.20F
LEWISTOWN      CLOUDY    38  31  76 NW14G28   30.23R
GREAT FALLS    LGT RAIN  38  34  85 NW13      30.30S
CUT BANK       CLOUDY    43  28  55 N15G23    30.28F
HELENA         CLOUDY    45  29  53 N20G29    30.27S
BUTTE          PTSUNNY   54  24  31 NW14G25   30.12F
BOZEMAN        PTSUNNY   54  36  50 NW24G33   30.12R

WESTERN MONTANA


CITY           SKY/WX    TMP DP  RH WIND       PRES   REMARKS
MISSOULA       SUNNY     63  31  30 N10G16    30.15F
KALISPELL      NOT AVBL

NORTH DAKOTA


CITY           SKY/WX    TMP DP  RH WIND       PRES   REMARKS
WILLISTON      CLOUDY    62  37  39 N22G32    29.90R
DICKINSON      PTSUNNY   67  37  33 S7        29.89F
MINOT          MOSUNNY   71  25  17 SE12G17   29.86F
BISMARCK       CLOUDY    63  31  30 CALM      29.94F

SOUTHERN SASKATCHEWAN


CITY           SKY/WX    TMP DP  RH WIND       PRES   REMARKS
REGINA         PTSUNNY   54  34  47 NW24G35   29.98R
ESTEVAN        LGT RAIN  55  41  58 NW28G40   29.93
SWIFT CURRENT  MOSUNNY   52  27  37 NW29G39   30.05F




USA.gov is the U.S. government's official web portal to all federal, state and local government web resources and services.